Regional Weather Roundup
Issued by NWS Kansas City/Pleasant Hill, MO

Home | Current Version | Previous Version | Text Only | Print | Product List | Glossary On
Versions: 1 2 3 4 5 6 7 8 9 10 11 12 13 14 15 16 17 18 19 20 21 22 23 24 25 26 27 28 29 30 31 32 33 34 35 36 37 38 39 40 41 42 43 44 45 46 47 48 49 50
000
ASUS43 KEAX 201711
RWREAX

WEATHER ROUNDUP FOR EASTERN KANSAS AND NORTHWEST MISSOURI
NATIONAL WEATHER SERVICE KANSAS CITY/PLEASANT HILL MO
1200 PM CDT MON OCT 20 2014

KSZ040-057-103>105-MOZ028-029-037-043-201800-
...KANSAS CITY METROPOLITAN AREA...

CITY           SKY/WX    TMP DP  RH WIND       PRES   REMARKS
K.C. INTL      MOSUNNY   68  48  48 NE8       30.08R
K.C. DOWNTOWN  SUNNY     70  48  45 VRB6      30.06S
LEES SUMMIT    SUNNY     68  50  52 E8        30.07S
OLATHE - IXD   SUNNY     66  54  65 N10       30.08R
OLATHE - OJC   SUNNY     67  53  61 N10       30.06S
LAWRENCE       SUNNY     67  51  56 VRB3      30.08R

$$

MOZ001>008-011>017-020>025-030>033-038>040-044>046-053-054-201800-
...NORTHERN AND CENTRAL MISSOURI...

CITY           SKY/WX    TMP DP  RH WIND       PRES   REMARKS
ST. JOSEPH     SUNNY     68  45  43 E5        30.08S
MOSBY          SUNNY     66  45  45 N3        30.07S
WHITEMAN AFB   SUNNY     67  52  60 VRB2      30.05S
CLINTON        SUNNY     68  57  68 CALM      30.06R
SEDALIA        SUNNY     69  51  52 CALM      30.06S
WARSAW         NOT AVBL
MARSHALL       SUNNY     70  50  49 N6        30.06S
CHILLICOTHE      N/A     68  46  45 NE8       30.06S
MOBERLY        SUNNY     68  41  37 N10       30.04F
KIRKSVILLE     SUNNY     66  46  48 N9        30.04S

$$

MOZ041-047>049-056>058-063>065-088>090-097-201800-
...EASTERN AND SOUTHERN MISSOURI...

CITY           SKY/WX    TMP DP  RH WIND       PRES   REMARKS
ST. LOUIS INTL SUNNY     69  53  56 W9        29.98F
SPIRIT OF STL  SUNNY     68  52  56 NW7       29.98F
COLUMBIA       SUNNY     68  51  54 N9        30.03F
JEFFERSON CITY SUNNY     68  52  56 W7        30.02F
MEXICO         SUNNY     68  52  56 NW8       30.02F
HANNIBAL       SUNNY     68  41  37 NW12G18   30.01S
ROLLA          SUNNY     67  54  63 W12       30.01F
LEBANON        SUNNY     68  55  64 W9        30.06S
OSAGE BEACH    SUNNY     68  54  60 CALM      30.04S
SPRINGFIELD    CLOUDY    66  55  67 W8        30.07S
BRANSON        PTSUNNY   68  55  64 W6        30.09F
NEVADA         SUNNY     70  57  64 SW3       30.07S
JOPLIN         SUNNY     68  56  65 W6        30.08F
WEST PLAINS    MOSUNNY   69  54  58 W7        30.06F

$$

IAZ060-094-KSZ022-034>040-054-083-096-NEZ052-066-093-201800-
...KANSAS...SOUTHEAST NEBRASKA AND IOWA...

CITY           SKY/WX    TMP DP  RH WIND       PRES   REMARKS
TOPEKA         SUNNY     68  53  58 NE5       30.08S
MANHATTAN      SUNNY     68  53  58 NE6       30.09S
EMPORIA        SUNNY     71  56  58 VRB7      30.07S
CHANUTE        SUNNY     70  58  65 NW6       30.07S
WICHITA        SUNNY     73  56  54 NE8       30.08S
OMAHA          SUNNY     64  44  48 CALM      30.11R
LINCOLN        SUNNY     66  44  45 VRB3      30.13S
FALLS CITY     SUNNY     69  44  40 E7        30.09R
LAMONI         SUNNY     65  45  48 NE7       30.06S
DES MOINES     SUNNY     66  43  43 NW12      30.04F

$$



USA.gov is the U.S. government's official web portal to all federal, state and local government web resources and services.